Weather History for KTIF - July, 2013

Change the Weather History Date:

Sunday, July 7, 2013

  Actual Average (KLBF) Record (KLBF)
Temperature  
Mean Temperature 78 °F 74 °F  
Max Temperature 91 °F 88 °F 104 °F (1990)
Min Temperature 67 °F 60 °F 48 °F (1922)
Degree Days  
Heating Degree Days 0 0  
Month to date heating degree days 0  
Since 1 June heating degree days 51  
Since 1 July heating degree days 0  
Cooling Degree Days 14 9  
Month to date cooling degree days 60  
Year to date cooling degree days 226  
Since 1 June cooling degree days 198  
Growing Degree Days 28 (Base 50)    
Moisture  
Dew Point 63 °F    
Average Humidity 62    
Maximum Humidity 84    
Minimum Humidity 35    
Precipitation  
Precipitation 0.00 in 0.09 in 2.34 in (1977)
Month to date precipitation 0.64  
Year to date precipitation 11.50  
Snow  
Snow 0.00 in 0.00 in 0.00 in (2002)
Month to date snowfall 0.0  
Since 1 June snowfall 0.0  
Since 1 July snowfall 0.0  
Snow Depth -    
Sea Level Pressure  
Sea Level Pressure 29.96 in    
Wind  
Wind Speed 6 mph (NNE)    
Max Wind Speed 18 mph    
Max Gust Speed 28 mph    
Visibility 10 miles    
Events Rain , Thunderstorm    
T = Trace of Precipitation, MM = Missing Value Source: NWS Daily Summary

Daily Weather History Graph

Daily Weather History Graph

Search for Another Location

Airport or City:

Trip Planner

Search our weather history database for the weather conditions in past years. The results will help you decide how hot, cold, wet, or windy it might be!

Date:

Astronomy

Jul. 07, 2013 Rise Set
Actual Time 6:14 AM CDT 9:19 PM CDT
Civil Twilight 5:40 AM CDT 9:53 PM CDT
Nautical Twilight 4:57 AM CDT 10:36 PM CDT
Astronomical Twilight 4:05 AM CDT 11:28 PM CDT
Moon 5:53 AM CDT (7/7) 8:43 PM CDT (7/7)
Length of Visible Light 16h 13m
Length of Day
15h 05m
Waning Crescent, 0% of the Moon is Illuminated
Jul 7
Waning Crescent
Jul 8
New
Jul 15
First Quarter
Jul 22
Full
Jul 29
Last Quarter

Hourly Weather History & Observations

Time (CDT) Temp. Heat Index Dew Point Humidity Pressure Visibility Wind Dir Wind Speed Gust Speed Precip Events Conditions
12:15 AM 74.3 °F - 63.5 °F 69% 29.87 in 10.0 mi Calm Calm - N/A   Clear
12:35 AM 73.0 °F - 63.7 °F 72% 29.87 in 10.0 mi Calm Calm - N/A   Clear
12:55 AM 73.4 °F - 63.9 °F 72% 29.88 in 10.0 mi Calm Calm - N/A   Clear
1:15 AM 73.6 °F - 63.9 °F 72% 29.89 in 10.0 mi Calm Calm - N/A   Clear
1:35 AM 71.6 °F - 63.9 °F 76% 29.89 in 10.0 mi Calm Calm - N/A   Clear
1:55 AM 71.4 °F - 63.5 °F 76% 29.89 in 10.0 mi Calm Calm - N/A   Clear
2:15 AM 68.9 °F - 63.5 °F 83% 29.89 in 10.0 mi WNW 3.5 mph - N/A   Clear
2:35 AM 68.9 °F - 63.1 °F 82% 29.90 in 10.0 mi NW 3.5 mph - N/A   Clear
2:55 AM 68.4 °F - 63.0 °F 83% 29.90 in 10.0 mi Calm Calm - N/A   Clear
3:15 AM 69.3 °F - 62.4 °F 79% 29.90 in 10.0 mi Calm Calm - N/A   Clear
3:35 AM 68.5 °F - 63.5 °F 84% 29.91 in 10.0 mi NNW 3.5 mph 17.3 mph N/A   Clear
3:55 AM 69.1 °F - 63.0 °F 81% 29.91 in 10.0 mi NW 4.6 mph - N/A   Clear
4:15 AM 68.9 °F - 63.0 °F 81% 29.91 in 10.0 mi NNW 5.8 mph - N/A   Clear
4:35 AM 69.1 °F - 62.6 °F 80% 29.91 in 10.0 mi NW 4.6 mph - N/A   Clear
4:55 AM 69.4 °F - 62.6 °F 79% 29.91 in 10.0 mi NNW 4.6 mph - N/A   Clear
5:15 AM 69.1 °F - 62.4 °F 79% 29.91 in 10.0 mi North 5.8 mph - N/A   Clear
5:35 AM 68.0 °F - 62.1 °F 81% 29.91 in 10.0 mi WNW 4.6 mph - N/A   Clear
5:55 AM 67.8 °F - 61.9 °F 81% 29.91 in 10.0 mi WNW 4.6 mph - N/A   Clear
6:15 AM 68.5 °F - 61.7 °F 79% 29.92 in 10.0 mi WNW 4.6 mph - N/A   Clear
6:35 AM 68.5 °F - 61.7 °F 79% 29.94 in 10.0 mi NNW 5.8 mph 19.6 mph N/A   Clear
6:55 AM 70.7 °F - 61.3 °F 72% 29.94 in 10.0 mi NNW 10.4 mph - N/A   Clear
7:15 AM 71.8 °F - 60.4 °F 67% 29.95 in 10.0 mi NNW 6.9 mph 16.1 mph N/A   Clear
7:35 AM 72.0 °F - 59.9 °F 66% 29.94 in 10.0 mi North 8.1 mph - N/A   Clear
7:55 AM 72.9 °F - 59.7 °F 63% 29.94 in 10.0 mi North 8.1 mph - N/A   Clear
8:15 AM 74.5 °F - 60.8 °F 62% 29.94 in 10.0 mi NE 4.6 mph - N/A   Clear
8:35 AM 76.6 °F - 61.7 °F 60% 29.94 in 10.0 mi NNE 3.5 mph - N/A   Clear
8:55 AM 78.3 °F - 63.0 °F 59% 29.94 in 10.0 mi North 5.8 mph - N/A   Clear
9:15 AM 79.5 °F - 64.0 °F 59% 29.96 in 10.0 mi North 10.4 mph - N/A   Clear
9:35 AM 80.8 °F 82.5 °F 64.6 °F 58% 29.96 in 10.0 mi NNE 12.7 mph 16.1 mph N/A Thunderstorm Clear
9:55 AM 81.5 °F 82.9 °F 64.0 °F 55% 29.97 in 10.0 mi NNE 15.0 mph - N/A   Clear
10:15 AM 81.3 °F 82.9 °F 64.2 °F 56% 29.98 in 10.0 mi NNE 10.4 mph 16.1 mph N/A   Clear
10:35 AM 80.2 °F 81.9 °F 64.0 °F 58% 29.99 in 10.0 mi North 12.7 mph 19.6 mph N/A   Clear
10:55 AM 81.9 °F 83.4 °F 64.0 °F 55% 29.98 in 10.0 mi North 15.0 mph 23.0 mph N/A   Clear
11:15 AM 81.0 °F 81.6 °F 60.1 °F 49% 29.98 in 10.0 mi North 15.0 mph 18.4 mph N/A   Clear
11:35 AM 80.6 °F 81.5 °F 61.0 °F 51% 30.00 in 10.0 mi North 12.7 mph 17.3 mph N/A   Clear
11:55 AM 79.3 °F - 61.5 °F 54% 30.01 in 10.0 mi NNW 13.8 mph 18.4 mph N/A   Scattered Clouds
12:15 PM 75.6 °F - 60.3 °F 59% 30.03 in 10.0 mi NNW 18.4 mph 27.6 mph N/A   Mostly Cloudy
12:35 PM 78.8 °F - 61.0 °F 54% 30.02 in 10.0 mi North 18.4 mph 27.6 mph N/A   Scattered Clouds
12:55 PM 77.0 °F - 61.3 °F 58% 30.00 in 10.0 mi North 15.0 mph 21.9 mph N/A   Scattered Clouds
1:15 PM 80.6 °F 82.0 °F 63.5 °F 56% 29.98 in 10.0 mi NE 12.7 mph - N/A   Scattered Clouds
1:35 PM 81.5 °F 83.1 °F 64.6 °F 56% 29.98 in 10.0 mi NE 13.8 mph - N/A   Clear
1:55 PM 82.6 °F 84.3 °F 64.9 °F 55% 29.98 in 10.0 mi East 11.5 mph 18.4 mph N/A   Clear
2:15 PM 84.4 °F 86.1 °F 65.1 °F 52% 29.98 in 10.0 mi East 11.5 mph - N/A   Clear
2:35 PM 85.8 °F 87.6 °F 65.3 °F 50% 29.98 in 10.0 mi East 8.1 mph 12.7 mph N/A   Clear
2:55 PM 86.9 °F 88.1 °F 63.9 °F 46% 29.97 in 10.0 mi East 10.4 mph 16.1 mph N/A   Clear
3:15 PM 88.2 °F 89.3 °F 63.9 °F 44% 29.96 in 10.0 mi East 8.1 mph - N/A   Clear
3:35 PM 88.7 °F 89.8 °F 63.5 °F 43% 29.96 in 10.0 mi ENE 5.8 mph - N/A   Clear
3:55 PM 88.9 °F 89.7 °F 63.1 °F 42% 29.97 in 10.0 mi East 5.8 mph - N/A   Clear
4:15 PM 89.6 °F 89.5 °F 61.2 °F 38% 29.96 in 10.0 mi East 6.9 mph - N/A   Clear
4:35 PM 90.9 °F 90.3 °F 59.9 °F 35% 29.96 in 10.0 mi ENE 9.2 mph - N/A   Scattered Clouds
4:55 PM 90.7 °F 90.1 °F 59.5 °F 35% 29.97 in 10.0 mi East 6.9 mph - N/A   Scattered Clouds
5:15 PM 90.9 °F 90.6 °F 60.8 °F 36% 29.96 in 10.0 mi NNE 4.6 mph - N/A   Scattered Clouds
5:35 PM 87.8 °F 88.5 °F 62.4 °F 43% 29.96 in 10.0 mi ENE 5.8 mph - N/A   Mostly Cloudy
5:55 PM 87.4 °F 88.2 °F 63.3 °F 44% 29.96 in 10.0 mi NE 10.4 mph - N/A   Overcast
6:15 PM 87.6 °F 89.1 °F 64.4 °F 46% 29.95 in 10.0 mi NNE 15.0 mph 18.4 mph N/A   Mostly Cloudy
6:35 PM 84.6 °F 85.9 °F 64.0 °F 50% 29.96 in 10.0 mi NNE 13.8 mph 20.7 mph N/A   Scattered Clouds
6:55 PM 81.5 °F 82.8 °F 63.3 °F 54% 29.96 in 10.0 mi NNE 11.5 mph - N/A Thunderstorm Clear
7:15 PM 80.8 °F 81.6 °F 61.0 °F 51% 29.97 in 10.0 mi North 6.9 mph - N/A Thunderstorm Thunderstorm
7:35 PM 80.1 °F 81.0 °F 60.3 °F 51% 29.97 in 10.0 mi NE 4.6 mph - N/A Rain , Thunderstorm Light Thunderstorms and Rain
7:55 PM 80.6 °F 81.8 °F 62.6 °F 54% 29.97 in 10.0 mi North 5.8 mph - N/A Thunderstorm Clear
8:15 PM 81.5 °F 82.5 °F 62.1 °F 52% 29.96 in 10.0 mi NNE 11.5 mph - N/A   Clear
8:35 PM 81.3 °F 82.2 °F 61.3 °F 51% 29.98 in 10.0 mi NNE 9.2 mph - N/A   Clear
8:55 PM 80.1 °F 81.2 °F 61.9 °F 54% 29.97 in 10.0 mi NNE 11.5 mph - N/A Thunderstorm Scattered Clouds
9:15 PM 77.4 °F - 65.7 °F 67% 29.99 in 10.0 mi NE 9.2 mph - N/A   Clear
9:35 PM 75.6 °F - 65.3 °F 70% 30.00 in 10.0 mi ENE 10.4 mph 16.1 mph N/A   Clear
9:55 PM 74.3 °F - 65.1 °F 73% 30.01 in 10.0 mi ENE 13.8 mph 17.3 mph N/A   Clear
10:15 PM 72.9 °F - 63.7 °F 73% 30.02 in 10.0 mi ENE 10.4 mph - N/A   Clear
10:35 PM 72.5 °F - 62.6 °F 71% 30.03 in 10.0 mi East 11.5 mph - N/A   Clear
10:55 PM 71.8 °F - 62.4 °F 72% 30.04 in 10.0 mi East 10.4 mph - N/A Thunderstorm Clear
11:15 PM 71.8 °F - 62.6 °F 73% 30.05 in 10.0 mi ESE 8.1 mph - N/A   Clear
11:35 PM 71.4 °F - 63.5 °F 76% 30.04 in 10.0 mi East 6.9 mph - N/A   Clear
11:55 PM 71.1 °F - 63.7 °F 77% 30.03 in 10.0 mi East 8.1 mph - N/A   Clear